This demonstration page uses our WeatherBlox Daily Observations layout. Learn more.

Left ArrowRight Arrow

39.51506, -84.39828

Hourly Observations for June 29, 2017

Temp ( °F °C ) Dew Point ( °F °C ) Humidity (%) Winds ( mph kmh ) Pressure ( in mb ) Visibility ( mi km ) Precip ( " mm )
12:15 am 00:15 Clear 61 16 54 12.1 78 78 Calm 30.03 1017 10 16 0.00 0.00
12:35 am 00:35 Clear 62 16.4 55 12.8 79 79 Calm 30.03 1017 10 16 0.00 0.00
12:55 am 00:55 Clear 62 16.5 55 12.9 79 79 Calm 30.00 1016 10 16 0.00 0.00
1:15 am 01:15 Clear 61 16 54 12.3 79 79 Calm 30.00 1016 10 16 0.00 0.00
1:35 am 01:35 Clear 61 16 55 12.5 80 80 Calm 30.00 1016 10 16 0.00 0.00
1:55 am 01:55 Clear 60 15.6 54 12.4 81 81 Calm 30.00 1016 10 16 0.00 0.00
2:15 am 02:15 Clear 60 15.3 54 12.2 82 82 Calm 30.03 1017 10 16 0.00 0.00
2:35 am 02:35 Clear 60 15.5 54 12.4 82 82 Calm 30.00 1016 10 16 0.00 0.00
2:55 am 02:55 Clear 62 16.6 55 12.6 77 77 SW 5 7 30.00 1016 10 16 0.00 0.00
3:15 am 03:15 Clear 64 18 55 12.9 72 72 SW 5 7 30.00 1016 10 16 0.00 0.00
3:35 am 03:35 Clear 63 17 54 12.3 74 74 SW 5 7 30.00 1016 10 16 0.00 0.00
3:55 am 03:55 Clear 63 17 54 12.3 74 74 SSW 5 7 29.97 1015 10 16 0.00 0.00
4:15 am 04:15 Clear 63 17 54 12.1 73 73 SW 5 7 29.97 1015 10 16 0.00 0.00
4:35 am 04:35 Clear 62 16.4 54 12.1 76 76 SW 3 6 29.97 1015 10 16 0.00 0.00
4:55 am 04:55 Clear 61 16 54 12.2 78 78 WSW 3 6 29.97 1015 10 16 0.00 0.00
5:15 am 05:15 Clear 61 16 54 12.3 79 79 SW 3 6 29.97 1015 10 16 0.00 0.00
5:35 am 05:35 Clear 60 15.5 54 12.2 81 81 SSW 3 6 30.00 1016 10 16 0.00 0.00
5:55 am 05:55 Partly Cloudy 61 16 55 12.5 80 80 Calm 30.00 1016 10 16 0.00 0.00
6:15 am 06:15 Partly Cloudy 61 16.1 55 12.7 80 80 SW 3 6 30.00 1016 10 16 0.00 0.00
6:35 am 06:35 Sunny 62 16.6 55 12.8 78 78 SSW 3 6 30.00 1016 10 16 0.00 0.00
6:55 am 06:55 Sunny 63 17.4 56 13.3 77 77 SW 3 6 30.00 1016 10 16 0.00 0.00
7:15 am 07:15 Partly Cloudy 68 19.8 59 15.2 75 75 SSW 3 6 30.00 1016 10 16 0.00 0.00
7:35 am 07:35 Sunny 69 20.8 58 14.2 66 66 SSW 6 9 30.00 1016 10 16 0.00 0.00
7:55 am 07:55 Sunny 70 20.9 57 13.7 64 64 SSW 8 13 29.97 1015 10 16 0.00 0.00
8:15 am 08:15 Sunny 74 23.6 60 15.3 60 60 SSW 6 9 29.97 1015 10 16 0.00 0.00
8:35 am 08:35 Sunny 74 23.6 58 14.6 57 57 SW 12 19 29.97 1015 10 16 0.00 0.00
8:55 am 08:55 Sunny 77 25.1 59 14.8 53 53 SW 14 22 29.97 1015 10 16 0.00 0.00
9:15 am 09:15 Sunny 77 25.1 59 14.9 53 53 SW 13 20 29.97 1015 10 16 0.00 0.00
9:35 am 09:35 Sunny 77 25.2 58 14.4 51 51 SW 15 24 29.97 1015 10 16 0.00 0.00
9:55 am 09:55 Sunny 80 26.5 60 15.4 51 51 SW 18 30 29.97 1015 10 16 0.00 0.00
10:15 am 10:15 Sunny 80 26.5 59 15.1 50 50 SW 14 22 29.97 1015 10 16 0.00 0.00
10:35 am 10:35 Sunny 81 27 61 15.9 51 51 SW 21 33 29.97 1015 10 16 0.00 0.00
10:55 am 10:55 Sunny 81 27.2 62 16.4 52 52 SSW 17 28 29.94 1014 10 16 0.00 0.00
11:15 am 11:15 Sunny 82 27.6 62 16.7 51 51 SW 16 26 29.91 1013 10 16 0.00 0.00
11:35 am 11:35 Sunny 82 28 62 16.6 50 50 SW 23 37 29.91 1013 10 16 0.00 0.00
11:55 am 11:55 Sunny 83 28.1 62 16.9 51 51 SW 22 35 29.94 1014 10 16 0.00 0.00
12:15 pm 12:15 Partly Cloudy 83 28.4 62 16.7 49 49 SSW 17 28 29.94 1014 10 16 0.00 0.00
12:35 pm 12:35 Partly Cloudy 84 28.7 62 16.8 49 49 SW 20 31 29.94 1014 10 16 0.00 0.00
12:55 pm 12:55 Partly Cloudy 84 29 63 17.1 49 49 SSW 18 30 29.94 1014 10 16 0.00 0.00
1:15 pm 13:15 Mostly Cloudy 84 29 63 17 48 48 SW 14 22 29.94 1014 10 16 0.00 0.00
1:35 pm 13:35 Mostly Cloudy 90 32.1 66 18.9 46 46 SW 15 24 29.94 1014 10 16 0.00 0.00
1:55 pm 13:55 Mostly Cloudy 86 30 63 17.2 46 46 SW 16 26 29.94 1014 10 16 0.00 0.00
2:15 pm 14:15 Mostly Cloudy N/A N/A N/A WSW 16 26 N/A 10 16 0.00 0.00
2:35 pm 14:35 Partly Cloudy 90 32.1 62 16.9 40 40 WSW 15 24 29.94 1014 10 16 0.00 0.00
2:55 pm 14:55 Partly Cloudy 90 32.1 63 17 40 40 WSW 13 20 N/A 10 16 0.00 0.00
3:15 pm 15:15 Sunny N/A N/A N/A SW 15 24 N/A 10 16 0.00 0.00
3:35 pm 15:35 Sunny 90 32.1 62 16.9 40 40 SW 12 19 29.91 1013 10 16 0.00 0.00
3:55 pm 15:55 Sunny 90 32.1 59 14.9 35 35 SSW 17 28 N/A 10 16 0.00 0.00
4:15 pm 16:15 Sunny 90 32.1 61 16 38 38 SW 16 26 29.91 1013 10 16 0.00 0.00
4:35 pm 16:35 Sunny 90 32.1 60 15.4 36 36 SW 16 26 29.91 1013 10 16 0.00 0.00
4:55 pm 16:55 Sunny 90 32.1 59 14.9 35 35 SSW 17 28 29.91 1013 10 16 0.00 0.00
5:15 pm 17:15 Sunny 90 32.1 60 15.5 37 37 SSW 22 35 29.91 1013 10 16 0.00 0.00
5:35 pm 17:35 Partly Cloudy 90 32.1 62 16.9 40 40 SW 17 28 29.91 1013 10 16 0.00 0.00
5:55 pm 17:55 Sunny 90 32.1 62 16.5 39 39 SW 16 26 29.88 1012 10 16 0.00 0.00
6:15 pm 18:15 Sunny N/A N/A N/A SW 12 19 N/A 10 16 0.00 0.00
6:35 pm 18:35 Partly Cloudy N/A N/A N/A SSW 16 26 N/A 10 16 0.00 0.00
6:55 pm 18:55 Partly Cloudy 90 32.1 65 18.5 44 44 SW 14 22 29.88 1012 10 16 0.00 0.00
7:15 pm 19:15 Partly Cloudy N/A N/A N/A SW 12 19 N/A 10 16 0.00 0.00
7:35 pm 19:35 Sunny N/A N/A N/A SW 14 22 N/A 10 16 0.00 0.00
7:55 pm 19:55 Sunny N/A N/A N/A undefined N/A N/A 10 16 0.00 0.00
8:15 pm 20:15 Sunny 85 29.2 62 16.9 47 47 SSW 9 15 29.88 1012 10 16 0.00 0.00
8:35 pm 20:35 Sunny 83 28.6 62 16.9 49 49 SSW 10 17 29.88 1012 10 16 0.00 0.00
8:55 pm 20:55 Sunny 83 28.2 63 17.1 51 51 undefined N/A 29.88 1012 10 16 0.00 0.00
9:15 pm 21:15 Clear 82 28 64 17.5 53 53 S 8 13 29.88 1012 10 16 0.00 0.00
9:35 pm 21:35 Clear N/A N/A N/A S 7 11 N/A 10 16 0.00 0.00
9:55 pm 21:55 Clear N/A N/A N/A S 7 11 N/A 10 16 0.00 0.00
10:15 pm 22:15 Clear 81 27.2 64 18 57 57 S 6 9 29.91 1013 10 16 0.00 0.00
10:35 pm 22:35 Clear 80 26.5 64 17.8 59 59 S 5 7 N/A 10 16 0.00 0.00
10:55 pm 22:55 Partly Cloudy N/A N/A N/A S 8 13 N/A 10 16 0.00 0.00
11:15 pm 23:15 Partly Cloudy 80 26.5 65 18.4 61 61 SSW 6 9 29.94 1014 10 16 0.00 0.00
11:35 pm 23:35 Partly Cloudy 80 26.5 66 18.7 62 62 SSW 7 11 29.94 1014 10 16 0.00 0.00
11:55 pm 23:55 Partly Cloudy 80 26.5 65 18.5 62 62 SSW 9 15 29.94 1014 10 16 0.00 0.00

Powered by AerisWeather